Date,TemperatureHighF,TemperatureAvgF,TemperatureLowF,DewpointHighF,DewpointAvgF,DewpointLowF,HumidityHigh,HumidityAvg,HumidityLow,PressureMaxIn,PressureMinIn,WindSpeedMaxMPH,WindSpeedAvgMPH,GustSpeedMaxMPH,PrecipitationSumIn
2013-1-1,36.1,30.0,17.6,29.8,22.9,8.4,85,74,62,30.32,30.13,15,6,0,0.00
2013-1-2,30.0,19.2,2.3,18.0,12.1,0.5,94,74,54,30.48,30.28,18,5,0,0.00
2013-1-3,27.7,15.5,-0.9,16.0,8.1,-4.3,91,73,54,30.51,30.37,11,2,0,0.00
2013-1-4,36.7,27.1,13.8,27.6,21.8,12.9,98,81,67,30.36,30.21,12,4,0,0.00
2013-1-5,40.6,28.7,17.2,29.8,23.4,16.8,98,81,61,30.62,30.27,17,3,0,0.00
2013-1-6,42.8,28.9,20.3,33.4,26.2,19.8,98,90,68,30.56,30.29,12,2,0,0.00
2013-1-7,37.2,24.7,14.0,29.6,21.0,13.5,98,87,59,30.75,30.36,15,3,0,0.00
2013-1-8,45.9,29.2,11.5,34.4,25.5,11.0,98,87,64,30.75,30.66,9,2,0,0.00
2013-1-9,22.5,20.4,18.7,22.0,19.9,18.2,98,98,98,30.74,30.73,3,0,0,0.00
2013-1-11,33.1,32.8,32.5,32.6,32.3,32.0,98,98,98,30.63,30.51,2,0,0,0.33
2013-1-12,47.1,37.8,33.1,46.6,37.3,32.6,98,98,98,30.53,30.46,3,1,0,0.15
2013-1-13,46.8,40.6,34.9,46.2,40.1,34.4,98,98,98,30.51,30.36,3,1,0,0.02
2013-1-14,50.4,41.2,33.8,46.3,37.8,29.6,98,88,74,30.67,30.24,14,5,0,0.02
2013-1-15,37.0,32.9,28.0,31.7,29.0,26.7,98,86,75,30.70,30.59,7,2,0,0.00
2013-1-16,33.4,31.1,28.0,32.9,30.3,26.8,98,97,82,30.59,30.17,5,0,0,0.00
2013-1-17,41.0,32.7,25.2,36.8,29.1,17.1,98,87,70,30.46,30.21,13,3,0,0.68
2013-1-18,25.3,19.5,9.9,15.8,9.1,4.0,95,65,44,30.81,30.40,19,5,0,0.00
2013-1-19,44.2,34.0,20.8,33.9,26.3,12.0,92,74,60,30.72,30.24,12,5,0,0.09
2013-1-20,49.3,37.9,25.0,35.8,28.0,12.7,95,69,34,30.32,29.97,17,6,0,0.06
2013-1-21,28.9,22.0,15.1,22.5,16.4,11.7,98,80,54,30.44,30.12,10,2,0,0.00
2013-1-22,21.4,15.9,7.9,17.5,4.5,-5.1,98,62,40,30.46,30.11,16,6,0,0.00
2013-1-23,16.0,6.7,-4.0,0.4,-3.3,-9.1,88,64,46,30.52,30.44,15,4,0,0.00
2013-1-24,19.0,8.1,-6.3,3.1,-3.4,-10.3,88,61,36,30.65,30.45,25,7,0,0.04
2013-1-25,21.6,13.1,0.1,14.1,3.5,-2.4,96,67,43,30.71,30.38,15,3,0,0.00
2013-1-26,23.5,13.2,0.3,10.8,5.5,-3.1,98,73,49,30.65,30.35,17,6,0,0.00
2013-1-27,31.8,17.7,3.7,8.4,5.3,0.9,97,62,27,30.84,30.65,12,3,0,0.00
2013-1-28,31.1,24.0,10.4,30.6,21.1,6.5,98,89,51,30.82,30.33,4,1,0,0.00
2013-1-29,36.7,31.8,27.3,35.6,31.3,26.8,98,98,96,30.53,30.33,5,1,0,0.11
2013-1-30,54.9,44.2,32.4,54.3,43.7,31.9,98,98,98,30.47,29.76,8,2,0,0.43
2013-1-31,58.1,43.6,26.6,57.5,36.4,17.4,98,77,46,30.00,29.34,31,9,0,2.68